Weather History for KLGA - July, 2013

Change the Weather History Date:

Sunday, July 14, 2013

  Actual Average Record
Temperature  
Mean Temperature 83 °F 78 °F  
Max Temperature 94 °F 86 °F 99 °F (1954)
Min Temperature 72 °F 70 °F 59 °F (1940)
Degree Days  
Heating Degree Days 0 0  
Month to date heating degree days 0 0  
Since 1 June heating degree days 4 16  
Since 1 July heating degree days 0 0  
Cooling Degree Days 18 13  
Month to date cooling degree days 229 167  
Year to date cooling degree days 598 464  
Since 1 June cooling degree days 510 398  
Growing Degree Days 32 (Base 50)    
Moisture  
Dew Point 69 °F    
Average Humidity 66    
Maximum Humidity 93    
Minimum Humidity 39    
Precipitation  
Precipitation T in 0.16 in 1.02 in (1960)
Month to date precipitation 2.07 1.91  
Year to date precipitation 24.64 23.54  
Snow  
Snow 0.00 in 0.00 in - ()
Month to date snowfall 0.0 0.0  
Since 1 July snowfall 0.0 0.0  
Snow Depth 0.00 in    
Sea Level Pressure  
Sea Level Pressure 30.28 in    
Wind  
Wind Speed 8 mph (West)    
Max Wind Speed 16 mph    
Max Gust Speed 20 mph    
Visibility 8 miles    
Events Rain    
T = Trace of Precipitation, MM = Missing Value Source: NWS Daily Summary

Daily Weather History Graph

Daily Weather History Graph

Search for Another Location

Airport or City:

Trip Planner

Search our weather history database for the weather conditions in past years. The results will help you decide how hot, cold, wet, or windy it might be!

Date:

Astronomy

Jul. 14, 2013 Rise Set
Actual Time 5:36 AM EDT 8:26 PM EDT
Civil Twilight 5:03 AM EDT 8:58 PM EDT
Nautical Twilight 4:23 AM EDT 9:39 PM EDT
Astronomical Twilight 3:35 AM EDT 10:26 PM EDT
Moon 11:53 AM EDT (7/14) 11:34 PM EDT (7/14)
Length of Visible Light 15h 54m
Length of Day
14h 49m
Waxing Crescent, 35% of the Moon is Illuminated
Jul 14
Waxing Crescent
Jul 15
First Quarter
Jul 22
Full
Jul 29
Last Quarter
Aug 6
New

Hourly Weather History & Observations

Time (EDT) Temp. Heat Index Dew Point Humidity Pressure Visibility Wind Dir Wind Speed Gust Speed Precip Events Conditions
12:51 AM 73.0 °F - 70.0 °F 90% 30.28 in 9.0 mi ENE 3.5 mph - 0.00 in Rain Light Rain
1:05 AM 71.6 °F - 69.8 °F 94% 30.28 in 8.0 mi NE 6.9 mph - 0.00 in   Mostly Cloudy
1:48 AM 71.6 °F - 69.8 °F 94% 30.29 in 5.0 mi ENE 6.9 mph - 0.00 in   Overcast
1:51 AM 72.0 °F - 70.0 °F 93% 30.29 in 5.0 mi ENE 6.9 mph - 0.00 in   Overcast
2:51 AM 73.0 °F - 71.1 °F 93% 30.30 in 6.0 mi Calm Calm - 0.00 in Rain Light Rain
2:58 AM 73.4 °F - 71.6 °F 94% 30.30 in 6.0 mi Calm Calm - 0.00 in Rain Light Rain
3:39 AM 71.6 °F - 69.8 °F 94% 30.30 in 6.0 mi ENE 5.8 mph - 0.00 in   Mostly Cloudy
3:51 AM 72.0 °F - 70.0 °F 93% 30.30 in 6.0 mi ENE 5.8 mph - 0.00 in   Mostly Cloudy
3:58 AM 71.6 °F - 69.8 °F 94% 30.30 in 5.0 mi East 3.5 mph - N/A   Overcast
4:13 AM 71.6 °F - 69.8 °F 94% 30.30 in 5.0 mi Calm Calm - N/A   Mostly Cloudy
4:51 AM 72.0 °F - 70.0 °F 93% 30.30 in 8.0 mi Calm Calm - N/A   Scattered Clouds
5:51 AM 73.9 °F - 70.0 °F 87% 30.31 in 7.0 mi Calm Calm - N/A   Mostly Cloudy
6:51 AM 75.0 °F - 70.0 °F 84% 30.32 in 8.0 mi ENE 3.5 mph - N/A   Mostly Cloudy
7:51 AM 78.1 °F - 72.0 °F 81% 30.33 in 8.0 mi SW 6.9 mph - N/A   Mostly Cloudy
8:51 AM 80.1 °F 83.6 °F 71.1 °F 74% 30.33 in 8.0 mi West 9.2 mph - N/A   Mostly Cloudy
9:51 AM 82.0 °F 86.3 °F 71.1 °F 69% 30.32 in 10.0 mi WNW 9.2 mph - N/A   Mostly Cloudy
10:51 AM 84.0 °F 88.4 °F 70.0 °F 63% 30.31 in 10.0 mi West 9.2 mph - N/A   Mostly Cloudy
11:51 AM 86.0 °F 90.1 °F 69.1 °F 57% 30.31 in 10.0 mi NW 11.5 mph - N/A   Mostly Cloudy
12:51 PM 87.1 °F 92.0 °F 70.0 °F 57% 30.29 in 10.0 mi WNW 6.9 mph - N/A   Mostly Cloudy
1:51 PM 89.1 °F 92.9 °F 68.0 °F 50% 30.28 in 10.0 mi NW 10.4 mph - N/A   Mostly Cloudy
2:51 PM 91.9 °F 95.4 °F 66.9 °F 44% 30.27 in 10.0 mi West 4.6 mph - N/A   Mostly Cloudy
3:51 PM 91.9 °F 95.9 °F 68.0 °F 45% 30.25 in 10.0 mi SW 9.2 mph - N/A   Mostly Cloudy
4:51 PM 93.0 °F 94.6 °F 64.0 °F 38% 30.24 in 10.0 mi WSW 13.8 mph - N/A   Mostly Cloudy
5:51 PM 91.9 °F 93.3 °F 64.0 °F 39% 30.23 in 10.0 mi West 15.0 mph - N/A   Scattered Clouds
6:51 PM 91.0 °F 93.0 °F 64.9 °F 42% 30.23 in 10.0 mi WNW 8.1 mph - N/A   Scattered Clouds
7:51 PM 90.0 °F 92.4 °F 66.0 °F 45% 30.22 in 10.0 mi West 13.8 mph 18.4 mph N/A   Scattered Clouds
8:51 PM 89.1 °F 91.0 °F 64.9 °F 45% 30.23 in 10.0 mi WSW 6.9 mph - N/A   Scattered Clouds
9:51 PM 88.0 °F 89.6 °F 64.9 °F 46% 30.25 in 10.0 mi SW 9.2 mph - N/A   Scattered Clouds
10:51 PM 87.1 °F 89.9 °F 66.9 °F 51% 30.25 in 10.0 mi SW 6.9 mph - N/A   Scattered Clouds
11:51 PM 84.9 °F 88.8 °F 69.1 °F 59% 30.23 in 10.0 mi WSW 6.9 mph - N/A   Scattered Clouds